Date String (YYYY-MM-DD hh:mm:ss) UTC,Instrument flags,Ambient pressure (hPa),Sample flow (lpm),Bypass flow (lpm),Sample temperature (°C),Ambient temperature (°C),ASC tube jacket temperature (°C),LED temperature (°C),Box temperature (°C),Sample RH (%),Span deviation,Mass concentration (μg/m³),Mass concentration (μg/m³),Mass concentration (μg/m³)
DateTimeUTC,F1_M11,P_M11,Q1_M11,Q2_M11,T1_M11,T2_M11,T3_M11,T4_M11,T5_M11,U1_M11,ZSPAN_M11,X0_M11,X2_M11,X1_M11
2022-05-31 07:00:00,,0821.3,5.00,0.00,24.3,23.3,00.0,33.2,26.2,15.0,0000.0,0005.80,0001.31,0000.61
2022-05-31 07:01:00,,0821.4,5.00,0.00,24.3,23.3,00.0,33.2,26.3,15.0,0000.0,0006.24,0001.31,0000.61
2022-05-31 07:02:00,,0821.4,4.99,0.00,24.3,23.3,00.0,33.2,26.3,15.2,0000.0,0005.89,0001.39,0000.60
2022-05-31 07:03:00,,0821.3,5.00,0.00,24.3,23.3,00.0,33.2,26.3,14.9,0000.0,0006.26,0001.40,0000.60
2022-05-31 07:04:00,,0821.4,5.00,0.00,24.3,23.3,00.0,33.2,26.3,14.6,0000.0,0007.29,0001.41,0000.60
2022-05-31 07:05:00,,0821.4,5.00,0.00,24.4,23.3,00.0,33.2,26.3,14.2,0000.0,0007.25,0001.41,0000.61
2022-05-31 07:06:00,,0821.4,5.01,0.00,24.4,23.3,00.0,33.2,26.3,14.1,0000.0,0007.03,0001.36,0000.60
2022-05-31 07:07:00,,0821.4,4.99,0.00,24.4,23.3,00.0,33.2,26.3,14.0,0000.0,0006.91,0001.33,0000.59
2022-05-31 07:08:00,,0821.4,5.01,0.00,24.4,23.3,00.0,33.2,26.3,14.1,0000.0,0006.64,0001.24,0000.58
2022-05-31 07:09:00,,0821.4,5.00,0.00,24.4,23.3,00.0,33.2,26.3,14.1,0000.0,0006.15,0001.18,0000.57
2022-05-31 07:10:00,,0821.4,5.01,0.00,24.4,23.4,00.0,33.3,26.3,14.1,0000.0,0006.00,0001.17,0000.57
2022-05-31 07:11:00,,0821.4,4.99,0.00,24.4,23.4,00.0,33.3,26.3,14.2,0000.0,0004.99,0001.14,0000.57
2022-05-31 07:12:00,,0821.4,5.01,0.00,24.4,23.4,00.0,33.3,26.3,14.3,0000.0,0004.27,0001.11,0000.57
2022-05-31 07:13:00,,0821.4,5.00,0.00,24.4,23.4,00.0,33.3,26.3,14.3,0000.0,0003.67,0001.06,0000.56
2022-05-31 07:14:00,,0821.4,4.99,0.00,24.4,23.4,00.0,33.3,26.3,14.3,0000.0,0003.21,0000.99,0000.55
2022-05-31 07:15:00,,0821.4,5.00,0.00,24.4,23.4,00.0,33.3,26.3,14.3,0000.0,0001.83,0000.93,0000.54
2022-05-31 07:16:00,,0821.4,5.00,0.00,24.4,23.4,00.0,33.3,26.3,14.3,0000.0,0002.00,0000.94,0000.53
2022-05-31 07:17:00,,0821.4,5.01,0.00,24.4,23.4,00.0,33.3,26.3,14.3,0000.0,0002.74,0001.01,0000.53
2022-05-31 07:18:00,,0821.4,5.00,0.00,24.4,23.4,00.0,33.3,26.4,14.3,0000.0,0003.27,0001.00,0000.52
2022-05-31 07:19:00,,0821.4,4.99,0.00,24.4,23.4,00.0,33.3,26.4,14.4,0000.0,0003.29,0001.00,0000.52
2022-05-31 07:20:00,,0821.4,5.00,0.00,24.4,23.4,00.0,33.3,26.4,14.4,0000.0,0003.35,0001.02,0000.53
2022-05-31 07:21:00,,0821.4,5.00,0.00,24.4,23.4,00.0,33.3,26.4,14.5,0000.0,0004.15,0001.02,0000.52
2022-05-31 07:22:00,,0821.4,4.99,0.00,24.4,23.4,00.0,33.3,26.4,14.6,0000.0,0005.17,0001.08,0000.52
2022-05-31 07:23:00,,0821.4,5.01,0.00,24.4,23.4,00.0,33.3,26.3,14.6,0000.0,0005.83,0001.17,0000.52
2022-05-31 07:24:00,,0821.4,4.99,0.00,24.5,23.4,00.0,33.3,26.4,14.5,0000.0,0006.40,0001.17,0000.53
2022-05-31 07:25:00,,0821.4,4.99,0.00,24.5,23.4,00.0,33.3,26.4,14.5,0000.0,0007.42,0001.23,0000.52
2022-05-31 07:26:00,,0821.4,5.01,0.00,24.5,23.4,00.0,33.3,26.3,14.4,0000.0,0007.61,0001.30,0000.53
2022-05-31 07:27:00,,0821.4,4.99,0.00,24.5,23.4,00.0,33.3,26.4,14.3,0000.0,0007.56,0001.28,0000.53
2022-05-31 07:28:00,,0821.4,5.00,0.00,24.5,23.4,00.0,33.4,26.4,14.2,0000.0,0007.22,0001.21,0000.52
2022-05-31 07:29:00,,0821.4,5.01,0.00,24.5,23.4,00.0,33.4,26.4,14.3,0000.0,0006.45,0001.24,0000.52
2022-05-31 07:30:00,,0821.4,5.00,0.00,24.5,23.4,00.0,33.4,26.4,14.3,0000.0,0006.44,0001.24,0000.53
2022-05-31 07:31:00,,0821.4,5.00,0.00,24.5,23.4,00.0,33.4,26.4,14.2,0000.0,0006.44,0001.23,0000.52
2022-05-31 07:32:00,,0821.4,5.00,0.00,24.5,23.4,00.0,33.4,26.4,14.2,0000.0,0005.80,0001.26,0000.51
2022-05-31 07:33:00,,0821.3,4.99,0.00,24.5,23.4,00.0,33.4,26.4,14.0,0000.0,0004.62,0001.18,0000.51
2022-05-31 07:34:00,,0821.3,5.01,0.00,24.5,23.4,00.0,33.4,26.4,13.7,0000.0,0003.81,0001.09,0000.50
2022-05-31 07:35:00,,0821.4,4.99,0.00,24.5,23.4,00.0,33.4,26.4,13.8,0000.0,0003.08,0001.04,0000.50
2022-05-31 07:36:00,,0821.3,5.00,0.00,24.5,23.4,00.0,33.4,26.4,13.9,0000.0,0002.23,0000.99,0000.50
2022-05-31 07:37:00,,0821.4,4.99,0.00,24.5,23.4,00.0,33.4,26.4,13.9,0000.0,0003.13,0000.95,0000.49
2022-05-31 07:38:00,,0821.4,5.00,0.00,24.5,23.5,00.0,33.4,26.5,13.8,0000.0,0003.16,0000.95,0000.49
2022-05-31 07:39:00,,0821.4,4.99,0.00,24.5,23.5,00.0,33.4,26.5,14.2,0000.0,0003.27,0000.95,0000.49
2022-05-31 07:40:00,,0821.4,5.01,0.00,24.5,23.5,00.0,33.4,26.5,13.8,0000.0,0003.20,0000.91,0000.48
2022-05-31 07:41:00,,0821.4,4.99,0.00,24.5,23.5,00.0,33.4,26.5,13.9,0000.0,0003.44,0000.90,0000.48
2022-05-31 07:42:00,,0821.4,5.00,0.00,24.5,23.5,00.0,33.4,26.5,14.1,0000.0,0004.96,0000.94,0000.48
2022-05-31 07:43:00,,0821.4,5.00,0.00,24.5,23.6,00.0,33.4,26.5,14.3,0000.0,0005.59,0001.00,0000.50
2022-05-31 07:44:00,,0821.4,4.99,0.00,24.6,23.6,00.0,33.4,26.5,14.2,0000.0,0006.18,0001.07,0000.51
2022-05-31 07:45:00,,0821.4,5.01,0.00,24.6,23.6,00.0,33.4,26.5,14.0,0000.0,0006.61,0001.10,0000.52
2022-05-31 07:46:00,,0821.4,5.00,0.00,24.6,23.6,00.0,33.4,26.5,13.9,0000.0,0007.96,0001.17,0000.53
2022-05-31 07:47:00,,0821.5,4.99,0.00,24.6,23.6,00.0,33.4,26.5,13.7,0000.0,0008.46,0001.23,0000.54
2022-05-31 07:48:00,,0821.5,5.00,0.00,24.6,23.6,00.0,33.4,26.6,13.6,0000.0,0007.96,0001.26,0000.55
2022-05-31 07:49:00,,0821.5,5.01,0.00,24.6,23.6,00.0,33.5,26.6,13.7,0000.0,0008.33,0001.27,0000.55
2022-05-31 07:50:00,,0821.5,4.99,0.00,24.6,23.6,00.0,33.5,26.6,13.5,0000.0,0008.60,0001.27,0000.58
2022-05-31 07:51:00,,0821.4,5.01,0.00,24.6,23.7,00.0,33.5,26.6,13.3,0000.0,0008.59,0001.27,0000.59
2022-05-31 07:52:00,,0821.5,4.99,0.00,24.6,23.7,00.0,33.5,26.6,13.6,0000.0,0008.53,0001.28,0000.59
2022-05-31 07:53:00,,0821.4,5.00,0.00,24.6,23.7,00.0,33.5,26.6,13.6,0000.0,0007.78,0001.24,0000.60
2022-05-31 07:54:00,,0821.5,4.99,0.00,24.6,23.7,00.0,33.5,26.6,13.4,0000.0,0007.37,0001.17,0000.60
2022-05-31 07:55:00,,0821.5,4.99,0.00,24.6,23.7,00.0,33.5,26.6,13.5,0000.0,0007.41,0001.14,0000.61
2022-05-31 07:56:00,,0821.5,5.01,0.00,24.6,23.7,00.0,33.5,26.6,13.6,0000.0,0007.28,0001.14,0000.61
2022-05-31 07:57:00,,0821.6,4.99,0.00,24.6,23.7,00.0,33.5,26.6,13.4,0000.0,0005.54,0001.10,0000.61
2022-05-31 07:58:00,,0821.7,5.00,0.00,24.6,23.7,00.0,33.5,26.6,13.3,0000.0,0004.68,0001.07,0000.61
2022-05-31 07:59:00,,0821.7,5.00,0.00,24.6,23.7,00.0,33.5,26.6,13.3,0000.0,0004.60,0001.05,0000.61
